Weather History for KTNB - December, 2012

Change the Weather History Date:

Monday, December 10, 2012

  Actual Average (KGEV) Record (KGEV)
Temperature  
Mean Temperature 51 °F -  
Max Temperature 57 °F 48 °F 68 °F (2007)
Min Temperature 44 °F 26 °F 8 °F (1977)
Degree Days  
Heating Degree Days 14    
Growing Degree Days 1 (Base 50)    
Moisture  
Dew Point 51 °F    
Average Humidity 95    
Maximum Humidity 100    
Minimum Humidity 81    
Precipitation  
Precipitation 0.09 in - - ()
Sea Level Pressure  
Sea Level Pressure 29.81 in    
Wind  
Wind Speed 5 mph (WSW)    
Max Wind Speed 18 mph    
Max Gust Speed 32 mph    
Visibility 9 miles    
Events Rain    
Averages and records for this station are not official NWS values.
T = Trace of Precipitation, MM = Missing Value Source: NWS Daily Summary

Daily Weather History Graph

Daily Weather History Graph

Search for Another Location

Airport or City:

Trip Planner

Search our weather history database for the weather conditions in past years. The results will help you decide how hot, cold, wet, or windy it might be!

Date:

Astronomy

Dec. 10, 2012 Rise Set
Actual Time 7:27 AM EST 5:12 PM EST
Civil Twilight 6:58 AM EST 5:40 PM EST
Nautical Twilight 6:26 AM EST 6:12 PM EST
Astronomical Twilight 5:55 AM EST 6:43 PM EST
Moon 4:12 AM EST (12/10) 2:57 PM EST (12/10)
Length of Visible Light 10h 42m
Length of Day
9h 44m
Waning Crescent, 10% of the Moon is Illuminated
Dec 10
Waning Crescent
Dec 13
New
Dec 20
First Quarter
Dec 28
Full
Jan 4
Last Quarter

Hourly Weather History & Observations

Time (EST) Temp. Windchill Dew Point Humidity Pressure Visibility Wind Dir Wind Speed Gust Speed Precip Events Conditions
12:15 AM 53.2 °F - 50.9 °F 92% 30.00 in 10.0 mi West 8.1 mph - N/A   Overcast
12:35 AM 53.8 °F - 50.0 °F 87% 29.98 in 10.0 mi West 6.9 mph 20.7 mph N/A   Overcast
12:55 AM 53.8 °F - 51.6 °F 92% 29.98 in 10.0 mi West 4.6 mph 20.7 mph N/A   Overcast
1:15 AM 53.6 °F - 51.8 °F 94% 29.96 in 10.0 mi Calm Calm - N/A   Mostly Cloudy
1:35 AM 53.6 °F - 52.0 °F 94% 29.95 in 10.0 mi Calm Calm - N/A   Overcast
1:55 AM 53.8 °F - 52.2 °F 94% 29.95 in 10.0 mi West 4.6 mph 17.3 mph N/A   Overcast
2:15 AM 53.6 °F - 52.3 °F 95% 29.94 in 10.0 mi West 8.1 mph 18.4 mph N/A   Overcast
2:35 AM 54.0 °F - 52.3 °F 94% 29.93 in 10.0 mi SSW 6.9 mph - N/A   Overcast
2:55 AM 53.8 °F - 52.3 °F 95% 29.93 in 10.0 mi West 8.1 mph - N/A   Overcast
3:15 AM 53.6 °F - 52.3 °F 95% 29.93 in 10.0 mi Calm Calm - N/A   Overcast
3:55 AM 53.4 °F - 52.7 °F 97% 29.91 in 10.0 mi West 5.8 mph - N/A   Overcast
4:15 AM 53.4 °F - 52.7 °F 97% 29.91 in 10.0 mi NW 3.5 mph - N/A   Overcast
4:35 AM 52.9 °F - 52.7 °F 99% 29.91 in 7.0 mi Calm Calm - N/A   Overcast
4:55 AM 52.7 °F - 52.7 °F 100% 29.89 in 2.5 mi Calm Calm - N/A   Overcast
5:15 AM 53.1 °F - 52.9 °F 99% 29.87 in 10.0 mi South 8.1 mph 17.3 mph N/A   Overcast
5:35 AM 53.4 °F - 52.7 °F 97% 29.87 in 10.0 mi Calm Calm - N/A   Overcast
5:55 AM 53.4 °F - 52.7 °F 97% 29.86 in 10.0 mi South 5.8 mph - N/A   Overcast
6:15 AM 53.2 °F - 52.5 °F 97% 29.85 in 10.0 mi SSW 3.5 mph - N/A   Overcast
6:35 AM 53.2 °F - 52.2 °F 96% 29.84 in 10.0 mi South 8.1 mph 19.6 mph N/A   Overcast
6:55 AM 53.1 °F - 52.2 °F 97% 29.84 in 10.0 mi South 9.2 mph 18.4 mph N/A   Overcast
7:15 AM 52.7 °F - 52.3 °F 99% 29.85 in 10.0 mi West 4.6 mph 9.2 mph N/A   Overcast
7:35 AM 52.7 °F - 52.2 °F 98% 29.85 in 10.0 mi West 4.6 mph - N/A   Overcast
7:55 AM 53.1 °F - 52.7 °F 99% 29.84 in 10.0 mi SSW 9.2 mph 16.1 mph N/A   Overcast
8:15 AM 52.9 °F - 52.3 °F 98% 29.85 in 10.0 mi SW 8.1 mph - N/A   Overcast
8:35 AM 52.7 °F - 52.3 °F 99% 29.83 in 10.0 mi SSW 9.2 mph - N/A   Overcast
8:55 AM - - - N/A% 29.84 in 7.0 mi Calm Calm - N/A   Overcast
9:15 AM - - - N/A% 29.82 in 5.0 mi SSW 4.6 mph - N/A   Haze
9:35 AM - - - N/A% 29.82 in 5.0 mi SW 5.8 mph - N/A   Haze
9:55 AM - - - N/A% 29.82 in 3.0 mi South 6.9 mph - N/A Rain Rain
10:15 AM 52.2 °F - 51.4 °F 97% 29.85 in 3.0 mi NW 15.0 mph 32.2 mph N/A Rain Rain
10:35 AM 51.8 °F - 50.0 °F 94% 29.84 in 10.0 mi West 15.0 mph 21.9 mph 0.01 in Rain Light Rain
10:55 AM 51.8 °F - 50.0 °F 94% 29.84 in 10.0 mi West 12.7 mph 19.6 mph 0.01 in   Scattered Clouds
11:15 AM 51.4 °F - 50.0 °F 95% 29.83 in 7.0 mi WNW 10.4 mph 18.4 mph N/A Rain Light Rain
11:35 AM 51.6 °F - 50.0 °F 94% 29.83 in 5.0 mi WNW 6.9 mph 16.1 mph 0.01 in Rain Rain
11:55 AM 51.8 °F - 50.2 °F 94% 29.81 in 10.0 mi Calm Calm - 0.02 in   Scattered Clouds
12:15 PM 52.2 °F - 50.4 °F 94% 29.80 in 10.0 mi WNW 3.5 mph - N/A Rain Rain
12:35 PM 52.9 °F - 50.9 °F 93% 29.77 in 10.0 mi WNW 3.5 mph - N/A   Clear
1:15 PM 55.6 °F - 50.5 °F 83% 29.75 in 10.0 mi Calm Calm - N/A   Clear
1:35 PM 57.4 °F - 51.6 °F 81% 29.75 in 10.0 mi Calm Calm - N/A   Clear
1:55 PM 56.5 °F - 51.4 °F 83% 29.75 in 10.0 mi SW 6.9 mph - N/A Rain Light Rain
2:15 PM 54.7 °F - 52.2 °F 91% 29.75 in 10.0 mi WSW 9.2 mph - N/A Rain Rain
2:35 PM 54.7 °F - 53.4 °F 96% 29.75 in 5.0 mi South 4.6 mph - 0.01 in Rain Light Rain
2:55 PM 54.3 °F - 52.9 °F 95% 29.75 in 10.0 mi South 4.6 mph - 0.02 in   Scattered Clouds
3:15 PM 54.0 °F - 52.2 °F 94% 29.75 in 7.0 mi SSW 5.8 mph - N/A   Drizzle
3:35 PM 53.6 °F - 52.2 °F 95% 29.74 in 10.0 mi SSW 3.5 mph - N/A   Light Drizzle
3:55 PM 53.6 °F - 52.3 °F 95% 29.74 in 10.0 mi SW 4.6 mph - N/A Rain Rain
4:15 PM 53.8 °F - 52.0 °F 94% 29.74 in 10.0 mi Calm Calm - N/A   Drizzle
4:35 PM 52.9 °F - 52.0 °F 97% 29.74 in 7.0 mi Calm Calm - 0.02 in Rain Light Rain
4:55 PM 53.6 °F - 52.2 °F 95% 29.75 in 10.0 mi SW 3.5 mph - 0.03 in Rain Light Rain
5:15 PM 53.4 °F - 52.0 °F 95% 29.73 in 10.0 mi SSW 9.2 mph 17.3 mph 0.01 in Rain Light Rain
5:35 PM 53.1 °F - 52.5 °F 98% 29.73 in 10.0 mi WSW 3.5 mph - 0.01 in   Mostly Cloudy
5:55 PM 53.1 °F - 52.2 °F 97% 29.73 in 10.0 mi Calm Calm - 0.01 in   Overcast
6:15 PM 54.0 °F - 51.8 °F 92% 29.73 in 10.0 mi WSW 3.5 mph - N/A   Scattered Clouds
6:35 PM 53.2 °F - 51.4 °F 94% 29.73 in 10.0 mi Calm Calm - N/A   Scattered Clouds
6:55 PM 53.4 °F - 52.2 °F 95% 29.73 in 10.0 mi Calm Calm - N/A   Clear
7:15 PM 53.6 °F - 52.2 °F 95% 29.73 in 10.0 mi Calm Calm - N/A   Scattered Clouds
7:35 PM 52.9 °F - 51.8 °F 96% 29.72 in 10.0 mi Calm Calm - N/A   Scattered Clouds
7:55 PM 51.4 °F - 51.3 °F 99% 29.72 in 10.0 mi Calm Calm - N/A   Scattered Clouds
8:15 PM 53.1 °F - 52.0 °F 96% 29.73 in 10.0 mi Calm Calm - N/A   Scattered Clouds
8:35 PM 53.6 °F - 52.0 °F 94% 29.72 in 10.0 mi WSW 4.6 mph - N/A   Overcast
8:55 PM - - - N/A% 29.72 in 10.0 mi SSW 6.9 mph 18.4 mph N/A   Overcast
9:15 PM 53.2 °F - 51.8 °F 95% 29.72 in 10.0 mi North 5.8 mph - N/A   Mostly Cloudy
9:35 PM 51.6 °F - 50.9 °F 97% 29.71 in 10.0 mi Calm Calm - N/A   Scattered Clouds
9:55 PM 51.6 °F - 50.9 °F 97% 29.72 in 10.0 mi Calm Calm - N/A   Clear
10:15 PM 49.6 °F - 49.5 °F 99% 29.72 in 7.0 mi Calm Calm - N/A   Clear
10:35 PM 49.8 °F - 49.8 °F 100% 29.73 in 10.0 mi NW 9.2 mph - N/A   Mostly Cloudy
10:55 PM 52.2 °F - 50.4 °F 94% 29.74 in 10.0 mi WNW 11.5 mph 18.4 mph N/A   Overcast
11:15 PM 48.0 °F - 46.8 °F 95% 29.76 in 7.0 mi NW 16.1 mph 26.5 mph N/A   Light Drizzle
11:35 PM 45.7 °F 39.1 °F 44.6 °F 96% 29.77 in 7.0 mi NW 15.0 mph 25.3 mph N/A   Overcast
11:55 PM 44.6 °F 36.9 °F 43.0 °F 94% 29.78 in 10.0 mi WNW 18.4 mph 26.5 mph N/A   Overcast